User: anonymous   Login
Location: Unspecified
(0.0000°N, 0.0000°E)
Time: 11:09:02
(UTC+00:00)
Language:

FALCON 9 R/B - Orbit

View from above orbital plane
View from above orbital plane
View from above satellite
View from above satellite

Ground track
Ground track

The orbit data is extracted from the following two-line orbital elements,

1 37253U 10066K   14304.13672148  .00015737  00000-0  15444-2 0  2320
2 37253 034.5447 330.2034 4353008 301.2141 023.2804 06.76454532 94744
Epoch (UTC): 31 October 2014 03:16:52
Eccentricity: 0.4353008
inclination: 34.5447°
perigee height: 291 km
apogee height: 10572 km
right ascension of ascending node: 330.2034°
argument of perigee: 301.2141°
revolutions per day: 6.76454532
mean anomaly at epoch: 23.2804°
orbit number at epoch: 9474

The dashed part of the orbit path shows where the satellite is in the earth's shadow,  

DLR